{"data":{"norad_id":60141,"epoch":"2026-05-24T22:01:11.589600Z","epoch_age_seconds":81886,"freshness":"FRESH","line1":"1 60141U 24120G   26144.91749525  .00004264  00000+0  15602-3 0  9992","line2":"2 60141  53.1597 326.0935 0001608  90.7482 269.3703 15.30200691108126","mean_motion":15.30200691,"eccentricity":0.0001608,"inclination_deg":53.1597,"raan_deg":326.0935,"arg_perigee_deg":90.7482,"mean_anomaly_deg":269.3703,"bstar":0.00015602,"rev_number":10812,"period_min":94.105303210845,"perigee_km":474.11098753766,"apogee_km":476.31502489966,"semimajor_km":6853.3500062187,"source":"CELESTRAK","updated_at":"2026-05-25T13:38:19.188489Z"}}